Location: Ash Shall?l al Awwal
(24.0167°N, 32.8667°E)
Time: 19:57:17
(UTC+00:00)

Helios 1A Rocket - Pass Details

Date: 02 March 2021
Orbit: 563 x 585 km, 98.3° (Epoch: 10 April)

Event Time Altitude Azimuth Distance (km) Brightness Sun altitude
Rises 17:28:23 0° 180° (S) 2,776 6.4 -22.8°
Reaches altitude 10° 17:30:36 10° 187° (S) 1,877 5.6 -23.3°
Maximum altitude 17:34:28 43° 259° (W) 803 4.0 -24.2°
Drops below altitude 10° 17:38:21 10° 332° (NNW) 1,872 5.9 -25.1°
Sets 17:40:34 0° 339° (NNW) 2,768 6.7 -25.6°
